User: anonymous   Login
Location: Stigler
(35.2540°N, 95.1230°W)
Time: 15:46:49
(UTC-05:00)
Language:

Cosmos 1805 - Orbit

View from above orbital plane
View from above orbital plane
View from above satellite
View from above satellite

Ground track
Ground track

The orbit data is extracted from the following two-line orbital elements,

1 17191U 86097A   16243.62521959  .00001027  00000-0  59205-4 0  9999
2 17191  82.4748 315.5486 0005000  18.3554 341.7856 15.11313935619751
Epoch (UTC): 30 August 2016 15:00:18
Eccentricity: 0.0005000
inclination: 82.4748°
perigee height: 529 km
apogee height: 535 km
right ascension of ascending node: 315.5486°
argument of perigee: 18.3554°
revolutions per day: 15.11313935
mean anomaly at epoch: 341.7856°
orbit number at epoch: 61975

The dashed part of the orbit path shows where the satellite is in the earth's shadow,  

DLR